Curacao, Curacao

2:40 AM AST on February 25, 2018 (GMT -0400)
Willemstad-Hato International

Weather History for TNCC - March, 2014

Change the Weather History Date:

Friday, March 21, 2014

  Actual Average Record
Temperature  
Mean Temperature 82 °F -  
Max Temperature 87 °F 86 °F 89 °F (1999)
Min Temperature 78 °F 76 °F 73 °F (2003)
Cooling Degree Days 18    
Growing Degree Days 32 (Base 50)    
Moisture  
Dew Point 73 °F    
Average Humidity 73    
Maximum Humidity 83    
Minimum Humidity 56    
Precipitation  
Precipitation 0.00 in 0.02 in - ()
Sea Level Pressure  
Sea Level Pressure 29.91 in    
Wind  
Wind Speed 14 mph ()    
Max Wind Speed 18 mph    
Max Gust Speed -    
Visibility 7.2 miles    
Events      
Averages and records for this station are not official NWS values.
T = Trace of Precipitation, MM = Missing Value Source: Averaged Metar Reports

Daily Weather History Graph

Daily Weather History Graph

Search for Another Location

Airport or City:

Trip Planner

Search our weather history database for the weather conditions in past years. The results will help you decide how hot, cold, wet, or windy it might be!

Date:

Astronomy

Mar. 21, 2014 Rise Set
Actual Time 6:39 AM AST 6:46 PM AST
Civil Twilight 6:18 AM AST 7:07 PM AST
Nautical Twilight 5:53 AM AST 7:32 PM AST
Astronomical Twilight 5:29 AM AST 7:57 PM AST
Moon 11:15 PM AST (3/21) 10:13 AM AST (3/21)
Length of Visible Light 12h 49m
Length of Day
12h 07m
Waning Gibbous, 75% of the Moon is Illuminated
Mar 21
Waning Gibbous
Mar 23
Last Quarter
Mar 30
New
Apr 7
First Quarter
Apr 15
Full

Hourly Weather History & Observations

Time (AST) Temp. Heat Index Dew Point Humidity Pressure Visibility Wind Dir Wind Speed Gust Speed Precip Events Conditions
12:00 AM 78.8 °F - 73.4 °F 83% 29.92 in 6.2 mi ESE 13.8 mph - N/A   Scattered Clouds
1:00 AM 78.8 °F - 73.4 °F 83% 29.89 in 6.2 mi ESE 13.8 mph - N/A   Scattered Clouds
2:00 AM 79 °F - 73 °F 76% 29.89 in 12 mi ESE 13.8 mph - -   Haze
2:00 AM 78.8 °F - 73.4 °F 83% 29.89 in 6.2 mi ESE 13.8 mph - N/A   Scattered Clouds
3:00 AM 78.8 °F - 73.4 °F 83% 29.86 in 6.2 mi ESE 15.0 mph - N/A   Scattered Clouds
4:00 AM 78.8 °F - 73.4 °F 83% 29.86 in 6.2 mi ESE 15.0 mph - N/A   Scattered Clouds
5:00 AM 79 °F - 73 °F 76% 29.87 in 12 mi ESE 15.0 mph - -   Haze
5:00 AM 78.8 °F - 73.4 °F 83% 29.86 in 6.2 mi ESE 15.0 mph - N/A   Scattered Clouds
6:00 AM 78.8 °F - 73.4 °F 83% 29.89 in 6.2 mi ESE 16.1 mph - N/A   Scattered Clouds
7:00 AM 80.6 °F 85.4 °F 73.4 °F 79% 29.92 in 6.2 mi ESE 12.7 mph - N/A   Scattered Clouds
8:00 AM 82 °F - 73 °F 68% 29.94 in 9 mi ESE 16.1 mph - -   Haze
8:00 AM 82.4 °F 88.2 °F 73.4 °F 74% 29.92 in 6.2 mi ESE 16.1 mph - N/A   Scattered Clouds
9:00 AM 84.2 °F 89.6 °F 71.6 °F 66% 29.95 in 6.2 mi ESE 18.4 mph - N/A   Scattered Clouds
10:00 AM 86.0 °F 91.8 °F 71.6 °F 62% 29.98 in 6.2 mi ESE 18.4 mph - N/A   Partly Cloudy
11:00 AM 85 °F - 73 °F 60% 29.99 in 12 mi East 17.3 mph - -   Haze
11:00 AM 84.2 °F 90.9 °F 73.4 °F 70% 29.98 in 6.2 mi East 17.3 mph - N/A   Partly Cloudy
12:00 PM 86.0 °F 93.4 °F 73.4 °F 66% 29.98 in 6.2 mi East 18.4 mph - N/A   Partly Cloudy
1:00 PM 86.0 °F 91.8 °F 71.6 °F 62% 29.95 in 6.2 mi East 16.1 mph - N/A   Partly Cloudy
2:00 PM 85 °F - 72 °F 56% 29.92 in 9 mi East 17.3 mph - -   Scattered Clouds
2:00 PM 86.0 °F 91.8 °F 71.6 °F 62% 29.92 in 6.2 mi East 17.3 mph - N/A   Partly Cloudy
3:00 PM 84.2 °F 90.9 °F 73.4 °F 70% 29.89 in 6.2 mi East 17.3 mph - N/A   Scattered Clouds
4:00 PM 84.2 °F 89.6 °F 71.6 °F 66% 29.89 in 6.2 mi East 16.1 mph - N/A   Partly Cloudy
5:00 PM 84 °F - 72 °F 61% 29.88 in 9 mi East 15.0 mph - -   Haze
5:00 PM 84.2 °F 90.9 °F 73.4 °F 70% 29.86 in 6.2 mi East 12.7 mph - N/A   Partly Cloudy
6:00 PM 82.4 °F 88.2 °F 73.4 °F 74% 29.86 in 6.2 mi East 12.7 mph - N/A   Partly Cloudy
7:00 PM 80.6 °F 85.4 °F 73.4 °F 79% 29.89 in 6.2 mi East 16.1 mph - N/A   Partly Cloudy
8:00 PM 80 °F - 74 °F 77% 29.91 in 9 mi East 15.0 mph - -   Haze
8:00 PM 80.6 °F 85.4 °F 73.4 °F 79% 29.89 in 6.2 mi East 13.8 mph - N/A   Partly Cloudy
9:00 PM 80.6 °F 85.4 °F 73.4 °F 79% 29.92 in 6.2 mi East 15.0 mph - N/A   Partly Cloudy
10:00 PM 80.6 °F 85.4 °F 73.4 °F 79% 29.95 in 6.2 mi East 16.1 mph - N/A   Partly Cloudy
11:00 PM 80 °F - 74 °F 77% 29.95 in 9 mi ESE 17.3 mph - -   Mostly Cloudy
11:00 PM 80.6 °F 85.4 °F 73.4 °F 79% 29.95 in 6.2 mi East 16.1 mph - N/A   Mostly Cloudy